Location: Krakow
(50.0830°N, 19.9170°E)
Time: 00:58:48
(UTC+01:00)

S-56A Canister/Altair - Pass Details

Date: 04 December 2023
Orbit: 640 x 2488 km, 38.9° (Epoch: 23 February)

Event Time Altitude Azimuth Distance (km) Brightness Sun altitude
Rises 17:12:18 0° 255° (WSW) 3,246 12.7 -14.1°
Reaches altitude 10° 17:17:07 10° 216° (SW) 2,648 11.1 -14.8°
Maximum altitude 17:18:14 11° 205° (SSW) 2,699 10.9 -15.0°
Drops below altitude 10° 17:19:25 10° 195° (SSW) 2,830 10.8 -15.2°
Sets 17:25:44 0° 160° (SSE) 4,332 11.3 -16.2°
